Skip Page Navigation
NASA JPL Caltech
NASA Logo - Jet Propulsion Laboratory + View the NASA Portal
+ Center for Near-Earth Object Studies
JPL Home Earth Solar System Stars & Galaxies Technology
JPL Solar System Dynamics
BODIES ORBITS EPHEMERIDES TOOLS PHYSICAL DATA DISCOVERY FAQ SITE MAP
JPL Small-Body Database Browser
Search: [ help ]  
437850 (1999 TF218)
Classification: Main-belt Asteroid          SPK-ID: 2437850
Ephemeris | Orbit Diagram | Orbital Elements | Mission Design | Physical Parameters | Discovery Circumstances ]

[ show orbit diagram ]
Orbital Elements at Epoch 2459000.5 (2020-May-31.0) TDB
Reference: JPL 10 (heliocentric ecliptic J2000)
 Element Value Uncertainty (1-sigma)   Units 
e .2699587228486432 9.319e-08  
a 2.579152149068197 3.532e-08 au
q 1.882887528873413 2.5623e-07 au
i 6.569716536299868 8.4149e-06 deg
node 11.55767338900782 8.0474e-05 deg
peri 339.4192915221174 8.8479e-05 deg
M 10.50664571656009 4.8436e-05 deg
tp 2458956.345450475585
(2020-Apr-16.84545048)
0.00020269 TDB
period 1512.91270854746
4.14
3.1078e-05
8.509e-08
d
yr
n .2379516002252596 4.8879e-09 deg/d
Q 3.275416769262981 4.4855e-08 au
  Orbit Determination Parameters
   # obs. used (total)      120  
   data-arc span      7208 days (19.73 yr)  
   first obs. used      1999-10-06  
   last obs. used      2019-07-01  
   planetary ephem.      DE431  
   SB-pert. ephem.      SB431-N16  
   condition code      0  
   norm. resid. RMS      .65586  
   source      ORB  
   producer      Otto Matic  
   solution date      2019-Sep-24 07:37:56  

Additional Information
 Earth MOID = .879182 au 
 Jupiter MOID = 2.16501 au 
 T_jup = 3.364 
[ show covariance matrix ]

Ephemeris | Orbit Diagram | Orbital Elements | Mission Design | Physical Parameters | Discovery Circumstances ]

Physical Parameter Table
Parameter Symbol Value Units Sigma Reference Notes
absolute magnitude H 16.9   n/a MPO440810  

437850 (1999 TF218)          Discovered 1999-Oct-15 by LINEAR at Socorro
Reference: Last Updated: 2015-07-06

Alternate Designations
 1999 TF218 = 2003 QF58 
Ephemeris | Orbit Diagram | Orbital Elements | Mission Design | Physical Parameters | Discovery Circumstances ]
ABOUT SSD CREDITS/AWARDS PRIVACY/COPYRIGHT GLOSSARY LINKS
FirstGov 2020-Aug-06 13:41 UT
(server date/time)  
NASA Home Page
Site Manager:   Ryan S. Park
Webmaster  Alan B. Chamberlin